EHI
0 1 2 2 1 0 1 0 0 1 2 2 1 0 0 0 0 0 0 0 0 0 0 0 0 0 0 0 0 0 0 0 0 0 0 0 0 0 0 0 0 0 0
0 1 2 3 1 1 1 0 0 0 1 1 0 0 0 0 0 0 0 0 0 0 0 0 0 0 0 0 0 0 0 0 0 0 0 0 0 0 0 0 0 0 0
0 1 2 3 2 1 0 0 0 0 0 0 0 0 0 0 0 0 0 0 0 0 0 0 0 0 0 0 0 0 0 0 0 0 0 0 0 0 0 0 0 0 0
0 1 2 3 3 1 0 0 0 0 0 0 0 0 0 0 0 0 0 0 0 0 0 0 0 0 0 0 0 0 0 0 0 0 0 0 0 0 0 0 0 0 0
0 1 3 5 5 3 1 0 0 0 0 0 0 0 0 0 0 0 0 0 0 0 0 0 0 0 0 0 0 0 0 0 0 0 0 0 0 0 0 0 0 0 0
0 1 4 6 7 5 2 1 1 1 0 0 0 0 0 0 0 0 0 0 0 0 0 0 0 0 0 0 0 0 0 0 0 0 0 0 0 0 0 0 0 0 0
1 2 4 7 7 6 4 3 2 2 1 0 0 0 0 0 0 0 0 0 0 0 0 0 0 0 0 0 0 0 0 0 0 0 0 0 0 0 0 0 0 0 0
2 2 4 5 5 5 4 3 3 2 1 0 0 0 1 0 0 0 0 0 0 0 0 0 0 0 0 0 0 0 0 0 0 0 0 0 0 0 0 0 0 0 0
1 1 1 2 2 2 3 3 1 1 0 0 0 0 0 0 0 0 0 0 0 0 0 0 0 0 0 0 0 0 0 0 0 0 0 0 0 0 0 0 0 0 0
0 0 0 0 0 0 1 1 1 0 0 0 0 0 0 0 0 0 0 0 0 0 0 0 0 0 0 0 0 0 0 0 0 0 0 0 0 0 0 0 0 0 0
0 0 0 0 0 0 0 0 0 0 0 0 0 0 0 0 0 0 0 0 0 0 0 0 0 0 0 0 0 0 0 0 0 0 0 0 0 0 0 0 0 0 0
0 0 0 0 1 1 1 1 1 0 0 0 0 0 0 0 0 0 0 0 0 0 0 0 0 0 0 0 0 0 0 0 0 0 0 0 0 0 0 0 0 0 0
0 0 0 1 2 2 2 2 2 1 0 0 0 0 0 0 0 0 0 0 0 0 0 0 0 0 0 0 0 0 0 0 0 0 0 0 0 0 0 0 0 0 0
0 1 1 2 2 3 3 3 2 1 0 0 0 0 0 0 0 0 0 0 0 0 0 0 0 0 0 0 0 0 0 0 0 0 0 0 0 0 0 0 0 0 0
0 1 2 2 2 2 2 2 1 1 0 0 0 0 0 0 0 0 0 0 0 0 0 0 0 0 0 0 0 0 0 0 0 0 0 0 0 0 0 0 0 0 0
0 0 1 1 1 0 1 1 0 0 0 0 0 0 0 0 0 0 0 0 0 0 0 0 0 0 0 0 0 0 0 0 0 0 0 0 0 0 0 0 0 0 0
0 0 0 0 0 0 0 0 0 0 0 0 0 0 0 0 0 0 0 0 0 0 0 0 0 0 0 0 0 0 0 0 0 0 0 0 0 0 0 0 0 0 0
0 0 0 0 0 0 0 0 0 0 0 0 0 0 0 0 0 0 0 0 0 0 0 0 0 0 0 0 0 0 0 0 0 0 0 0 0 0 0 0 0 0 0
0 0 0 0 0 0 0 1 0 0 0 0 0 0 0 0 0 0 0 0 0 0 0 0 0 0 0 0 0 0 0 0 0 0 0 0 0 0 0 0 0 0 0
0 0 0 0 0 0 0 0 0 0 0 0 0 0 0 0 0 0 0 0 0 0 0 0 0 0 0 0 0 0 0 0 0 0 0 0 0 0 0 0 0 0 0
0 0 0 0 0 0 0 0 0 0 0 0 0 0 0 0 0 0 0 0 0 0 0 0 0 0 0 0 0 0 0 0 0 0 0 0 0 0 0 0 0 0 0
0 0 0 0 0 0 0 0 0 0 0 0 0 0 0 0 0 0 0 0 0 0 0 0 0 0 0 0 0 0 0 0 0 0 0 0 0 0 0 0 0 0 0
0 0 0 0 0 0 0 0 0 0 0 0 0 0 0 0 0 0 0 0 0 0 0 0 0 0 0 0 0 0 0 0 0 0 0 0 0 0 0 0 0 0 0
0 0 0 0 0 0 0 0 0 0 0 0 0 0 0 0 0 0 0 0 0 0 0 0 0 0 0 0 0 0 0 0 0 0 0 0 0 0 0 0 0 0 0
0 0 0 0 0 0 0 0 0 0 0 0 0 0 0 0 0 0 0 0 0 0 0 0 0 0 0 0 0 0 0 0 0 0 0 0 0 0 0 0 0 0 0
0 0 0 0 0 0 0 0 0 0 0 0 0 0 0 0 0 0 0 0 0 0 0 0 0 0 0 0 0 0 0 0 0 0 0 0 0 0 0 0 0 0 0
Wind_Speed
4 3 2 3 5 6 7 8 8 8 8 8 8 8 8 9 9 9 9 9 10 10 10 11 11 11 11 12 12 12 12 11 11 12 12 11 11 12 11 10 9 11 13
5 4 3 3 6 7 7 8 8 8 8 8 8 8 8 9 9 9 9 9 9 10 10 10 11 11 11 11 11 12 11 11 11 10 8 9 9 10 11 10 9 10 12
5 5 4 4 5 7 7 8 8 8 7 7 7 8 8 8 8 8 9 9 9 9 10 10 11 11 11 11 11 11 11 10 9 7 5 7 9 10 10 10 11 12 11
5 4 4 5 6 7 7 7 7 7 7 7 7 8 8 8 8 8 8 8 8 9 9 10 10 10 10 11 11 10 10 9 7 4 4 6 7 9 10 10 10 11 11
5 4 5 6 7 7 8 8 7 7 8 7 8 8 8 8 8 8 8 8 8 8 9 9 9 9 10 10 10 10 9 8 6 3 5 6 6 8 9 9 9 10 10
5 4 6 6 7 7 8 8 7 7 8 8 8 8 8 8 8 8 8 8 8 7 8 8 8 8 9 9 9 9 8 6 3 4 5 5 5 8 8 8 9 9 9
4 4 5 6 7 8 8 8 8 8 9 9 9 9 9 8 8 8 8 8 8 8 7 8 8 8 8 8 8 8 7 5 4 5 4 5 6 7 7 8 8 8 9
4 4 4 6 7 7 8 8 8 8 9 9 10 10 9 9 8 7 7 7 7 7 7 7 7 7 7 7 7 7 6 4 4 4 4 4 6 7 7 7 7 7 8
4 4 4 4 5 7 8 8 8 8 9 9 9 9 9 9 8 8 7 6 6 6 6 7 7 7 7 7 7 6 5 4 3 3 4 4 5 6 6 6 6 7 7
4 4 3 3 3 4 5 7 8 8 8 8 9 8 8 7 7 7 7 7 6 6 6 6 6 6 6 6 6 5 4 1 3 3 2 4 5 5 5 5 6 6 6
3 3 2 2 3 3 3 5 6 7 7 6 6 7 5 3 4 4 7 7 6 5 5 5 5 5 5 5 5 4 1 1 2 2 2 4 4 4 4 4 5 5 6
2 2 1 2 2 2 2 2 2 3 3 3 3 3 3 3 3 3 5 6 5 5 4 5 4 3 2 2 3 1 1 1 1 1 2 4 3 3 3 3 4 5 5
2 1 1 1 1 2 1 1 1 2 2 3 3 3 2 2 2 2 1 2 2 2 2 2 1 1 1 1 1 1 1 1 0 1 2 3 3 2 2 3 3 4 4
2 1 1 1 1 1 2 2 2 1 2 2 2 3 2 2 2 2 1 2 1 1 1 0 0 1 1 1 1 1 1 0 0 0 2 3 2 1 0 1 2 3 3
1 1 0 1 1 1 1 1 2 2 2 2 2 2 2 1 2 1 1 1 2 2 1 1 0 0 0 0 0 0 0 0 0 0 1 2 2 1 1 2 2 2 3
1 1 0 0 1 1 1 1 1 2 2 2 2 2 2 1 1 1 1 1 1 1 1 1 1 0 0 0 0 0 0 0 0 1 0 1 2 2 1 2 2 3 3
1 0 0 0 1 1 1 1 1 1 2 2 2 2 2 2 1 1 0 1 1 1 2 1 1 0 1 0 0 1 1 1 1 1 1 1 0 2 2 1 2 2 3
1 0 0 0 0 0 1 1 1 1 2 2 1 1 2 2 1 1 0 1 1 1 1 1 1 1 1 1 0 1 1 1 1 1 1 1 1 1 1 2 2 1 2
1 0 0 1 0 0 1 0 1 1 1 1 1 1 1 1 1 1 0 0 1 1 1 1 1 1 1 1 1 1 1 1 1 1 1 1 1 1 1 1 2 2 1
1 0 0 0 1 1 0 1 1 1 1 1 1 1 1 1 1 1 0 1 1 1 1 1 1 1 1 1 1 1 1 1 1 1 2 1 1 1 2 2 1 1 1
1 1 0 0 1 1 0 0 1 1 0 0 0 0 0 0 1 1 1 1 1 1 1 2 2 1 1 1 1 1 1 2 2 1 2 2 2 1 2 2 2 1 1
1 1 1 1 1 1 1 1 1 1 1 0 0 0 0 1 1 1 1 1 2 2 2 2 2 2 1 1 1 1 2 3 2 1 1 2 2 2 2 2 2 2 1
2 2 2 2 1 1 1 1 1 1 1 1 1 1 1 1 1 1 2 2 2 2 2 3 3 3 2 2 2 2 2 2 0 2 2 1 1 2 2 2 3 3 2
3 2 2 2 2 1 1 1 2 2 2 2 1 1 1 2 2 2 2 2 2 2 3 3 3 3 3 3 2 2 3 2 2 1 2 2 2 2 2 2 3 3 3
3 3 3 3 3 2 2 2 2 3 2 2 1 2 2 2 2 2 2 2 2 2 3 3 4 4 4 4 3 2 3 3 3 3 3 2 2 2 2 3 3 3 3
4 3 3 3 3 3 3 2 3 3 3 2 2 2 2 2 2 3 3 3 3 3 3 4 4 5 5 5 4 4 3 3 3 3 3 3 3 2 3 3 3 3 2
Wind_Direction
142 134 103 94 105 103 102 100 95 88 89 88 88 87 85 84 82 80 79 77 75 74 73 74 76 75 75 76 78 77 78 76 74 72 71 74 82 87 86 85 93 91 87
136 135 114 98 102 100 102 103 99 92 87 85 87 86 85 84 82 81 79 77 75 74 73 73 75 75 75 77 79 77 77 80 78 73 75 82 83 87 86 80 74 86 89
136 132 130 103 102 98 101 100 98 97 91 89 87 86 82 81 81 80 78 75 74 74 72 72 74 75 75 75 76 76 75 78 80 73 84 94 92 90 91 88 86 88 91
133 130 123 104 103 97 97 95 95 96 95 90 86 84 83 80 78 79 80 77 74 74 75 74 73 74 74 74 74 73 72 70 72 75 91 87 91 93 94 93 93 94 93
127 124 110 104 103 100 96 91 90 90 88 86 84 83 82 80 77 76 76 77 76 76 78 78 76 75 74 74 74 72 68 63 58 81 88 89 88 91 93 94 96 96 95
118 117 108 99 102 101 98 92 89 88 82 80 81 80 78 77 75 73 70 70 72 74 78 81 81 78 75 76 75 73 67 55 66 86 89 92 92 92 91 94 100 99 99
110 101 103 92 97 96 94 92 85 82 78 73 70 68 68 70 71 70 66 66 67 71 77 80 80 79 75 73 75 74 66 33 65 80 82 86 88 91 92 93 99 104 104
104 95 93 84 82 86 87 83 80 76 77 75 70 65 61 61 61 64 65 66 65 68 73 78 79 78 77 75 74 72 60 30 72 75 80 84 82 92 95 91 94 102 107
96 92 90 97 90 81 78 78 77 75 74 73 70 66 61 57 55 57 58 61 63 66 68 70 74 76 75 74 72 67 52 18 72 78 76 78 83 96 96 99 99 105 108
89 86 88 93 96 96 89 77 73 71 71 72 67 62 59 60 58 52 53 53 57 65 69 72 73 74 71 73 71 59 39 342 93 87 78 77 74 96 100 99 101 106 111
87 77 84 90 87 87 89 83 80 76 70 73 73 66 64 73 67 59 48 42 48 58 64 70 71 76 74 78 69 52 18 84 80 79 77 66 70 87 101 103 108 109 114
124 97 76 90 94 90 83 95 99 89 79 70 78 79 73 70 58 50 53 47 45 45 61 64 62 78 93 107 94 74 118 74 66 83 76 56 57 78 94 113 118 118 117
144 106 61 67 101 104 95 89 82 79 78 68 68 62 63 67 66 51 47 56 54 41 64 75 95 95 86 82 102 101 62 51 36 59 66 45 38 54 96 105 124 130 130
158 126 57 35 69 98 96 92 92 87 79 69 63 57 56 54 53 38 22 19 15 12 18 35 73 96 99 124 130 109 70 34 34 22 57 37 19 3 37 144 140 143 147
189 172 41 23 28 62 95 95 93 95 90 81 56 55 53 59 56 39 22 12 7 359 345 339 4 72 80 109 121 122 91 53 5 270 90 42 7 309 269 228 192 182 169
216 258 339 55 32 45 89 108 108 106 103 95 74 58 48 47 57 38 16 9 5 349 337 326 334 293 269 276 343 295 263 235 261 292 285 69 14 343 292 239 217 210 195
228 239 347 95 49 52 83 114 127 122 118 101 86 73 55 38 39 33 19 356 355 337 326 319 327 241 212 228 264 299 284 270 245 262 280 275 300 12 355 297 238 220 214
217 225 11 13 87 40 55 93 133 131 117 107 98 88 63 41 22 6 47 339 329 311 299 286 292 264 230 232 258 299 277 265 260 260 264 277 279 274 342 357 329 245 223
267 221 333 24 24 57 68 73 104 117 108 103 98 86 76 54 354 338 50 297 285 278 275 273 262 264 242 239 261 285 281 266 269 260 251 267 279 285 279 325 350 348 273
327 257 207 56 28 25 99 92 105 111 106 99 95 73 61 46 337 329 263 239 260 242 244 255 252 247 245 230 240 265 275 266 254 251 246 247 265 270 277 273 256 302 355
359 349 317 9 34 39 47 206 214 220 205 129 94 68 53 359 321 315 307 241 247 238 239 240 237 223 232 242 237 238 241 229 232 239 242 240 242 250 262 273 267 263 250
352 335 338 318 322 315 304 297 275 268 239 238 216 160 327 291 297 285 284 258 236 237 232 228 226 233 237 248 255 236 223 208 193 241 253 247 250 249 245 254 257 256 255
352 340 324 322 308 313 320 332 316 244 215 205 216 236 259 261 253 264 258 257 231 229 227 232 232 231 234 242 266 255 239 227 246 214 238 253 269 262 250 257 257 249 242
354 350 342 339 329 326 317 295 279 258 248 253 251 248 251 247 249 253 252 250 245 240 237 237 238 242 232 232 238 267 280 292 240 226 213 219 264 272 271 268 261 255 244
1 1 354 351 348 345 326 303 283 282 279 269 261 248 251 245 246 250 254 252 246 246 246 245 239 237 234 235 236 242 242 251 245 239 237 235 255 264 275 275 265 255 249
5 6 359 354 350 347 337 310 288 280 287 277 265 262 259 254 249 248 248 250 249 249 248 247 244 240 239 238 237 237 235 237 235 240 250 247 252 260 268 264 259 252 245